This demonstration page uses our WeatherBlox Daily Observations layout. Learn more.

Left ArrowRight Arrow

38.83388, -104.82136

Hourly Observations for January 12, 2015

Temp ( °F °C ) Dew Point ( °F °C ) Humidity (%) Winds ( mph kmh ) Pressure ( in mb ) Visibility ( mi km ) Precip ( " mm )
12:06 am 00:06 Mostly Cloudy with Light Snow 27 -3 27 -3 100 100 S 8 13 30.36 1028 5 8 N/A
12:11 am 00:11 Mostly Cloudy with Light Snow 27 -3 27 -3 100 100 S 7 11 30.36 1028 1 1 N/A
12:31 am 00:31 Mostly Cloudy with Light Snow 27 -3 27 -3 100 100 SSE 8 13 30.36 1028 2 2 N/A
12:37 am 00:37 Mostly Cloudy with Light Snow 27 -3 27 -3 100 100 S 10 17 30.36 1028 2 3 N/A
12:47 am 00:47 Mostly Cloudy with Light Snow 27 -3 27 -3 100 100 S 8 13 30.36 1028 3 4 N/A
12:51 am 00:51 Mostly Cloudy 27 -3 27 -3 100 100 S 8 13 30.36 1028 3 5 N/A
12:53 am 00:53 Mostly Cloudy 27 -3 27 -3 100 100 S 8 13 30.36 1028 3 5 N/A
1:09 am 01:09 Cloudy 27 -3 27 -3 100 100 S 10 17 30.36 1028 4 6 N/A
1:15 am 01:15 Cloudy with Light Snow 27 -3 27 -3 100 100 SSE 9 15 30.36 1028 3 5 N/A
1:18 am 01:18 Cloudy 27 -3 27 -3 100 100 S 10 17 30.36 1028 3 5 N/A
1:19 am 01:19 Cloudy with Light Snow 27 -3 27 -3 100 100 S 10 17 30.36 1028 3 5 N/A
1:23 am 01:23 Cloudy with Light Snow 27 -3 27 -3 100 100 S 10 17 30.36 1028 3 5 N/A
1:25 am 01:25 Cloudy with Light Snow 27 -3 27 -3 100 100 S 10 17 30.36 1028 3 5 N/A
1:40 am 01:40 Mostly Cloudy with Light Snow 27 -3 27 -3 100 100 SSE 8 13 30.36 1028 3 5 N/A
1:56 am 01:56 Mostly Cloudy with Light Snow 27 -3 27 -2.9 100 100 SSE 5 7 30.28 1025 9 14 0.01 0.25
2:06 am 02:06 Mostly Cloudy with Light Snow 27 -3 27 -3 100 100 SE 3 6 30.36 1028 3 5 N/A
2:33 am 02:33 Mostly Cloudy 27 -3 27 -3 100 100 VRB 1 2 30.36 1028 7 11 N/A
2:36 am 02:36 Mostly Cloudy with Light Snow Showers 27 -3 27 -3 100 100 ESE 1 2 30.36 1028 3 5 N/A
2:50 am 02:50 Mostly Cloudy with Freezing Fog 27 -3 27 -3 100 100 E 1 2 30.36 1028 1 1 N/A
2:56 am 02:56 Mostly Cloudy with Light Snow Showers 27 -2.9 27 -2.9 100 100 E 2 4 30.29 1026 3 5 0.02 0.51
3:44 am 03:44 Mostly Cloudy with Freezing Fog 27 -3 27 -3 100 100 SSE 8 13 30.36 1028 1 2 N/A
3:51 am 03:51 Mostly Cloudy with Light Snow Showers 27 -3 27 -3 100 100 SSE 8 13 30.36 1028 1 2 N/A
3:56 am 03:56 Mostly Cloudy with Light Snow Showers 26 -3.3 26 -3.3 100 100 SSE 7 11 30.31 1026 1 2 0.02 0.51
4:18 am 04:18 Mostly Cloudy with Freezing Fog 27 -3 27 -3 100 100 S 7 11 30.36 1028 1 2 N/A
4:22 am 04:22 Mostly Cloudy with Freezing Fog 27 -3 27 -3 100 100 SSE 9 15 30.36 1028 1 2 N/A
4:52 am 04:52 Mostly Cloudy with Light Snow Showers 27 -3 27 -3 100 100 SSE 9 15 30.36 1028 1 2 N/A
5:05 am 05:05 Mostly Cloudy with Light Snow Showers 25 -4 25 -4 100 100 SSE 10 17 30.39 1029 1 2 N/A
6:06 am 06:06 Mostly Cloudy with Heavy Snow 25 -4 25 -4 100 100 SSE 10 17 30.39 1029 3 5 N/A
6:30 am 06:30 Mostly Cloudy 25 -4 25 -4 100 100 SSE 12 19 30.39 1029 1 2 N/A
6:31 am 06:31 Mostly Cloudy with Light Snow 25 -4 25 -4 100 100 SSE 13 20 30.39 1029 1 2 N/A
6:56 am 06:56 Mostly Cloudy with Light Snow 24 -4.4 24 -4.5 99 99 SSE 13 20 30.36 1028 1 2 N/A
7:03 am 07:03 Mostly Cloudy with Light Freezing Rain 25 -4 25 -4 100 100 SSE 9 15 30.42 1030 1 2 N/A
7:16 am 07:16 Mostly Cloudy with Light Snow 25 -4 23 -5 93 93 SSE 14 22 30.42 1030 1 2 N/A
7:20 am 07:20 Mostly Cloudy with Light Freezing Rain 23 -5 23 -5 100 100 SSE 13 20 30.42 1030 1 2 N/A
7:41 am 07:41 Mostly Cloudy with Light Freezing Rain 23 -5 23 -5 100 100 SSE 15 24 30.45 1031 1 2 N/A
7:56 am 07:56 Mostly Cloudy with Light Freezing Rain 23 -4.9 23 -5 99 99 SSE 10 17 30.37 1029 1 2 0.00 0.00
8:08 am 08:08 Mostly Cloudy with Light Freezing Rain 23 -5 23 -5 100 100 SSE 56 91 30.45 1031 1 2 N/A
8:25 am 08:25 Mostly Cloudy with Light Freezing Rain 21 -6 21 -6 100 100 NNW 155 250 30.48 1032 1 2 N/A
8:26 am 08:26 Mostly Cloudy with Light Freezing Rain 21 -6 21 -6 100 100 SSE 98 157 30.48 1032 1 2 N/A
8:36 am 08:36 Mostly Cloudy with Light Freezing Rain 21 -6 21 -6 100 100 W 15 24 30.48 1032 1 2 N/A
8:52 am 08:52 Mostly Cloudy with Light Freezing Rain 21 -6 21 -6 100 100 SSE 15 24 30.50 1033 1 2 N/A
8:54 am 08:54 Mostly Cloudy 21 -6 21 -6 100 100 S 17 28 30.50 1033 1 2 N/A
8:56 am 08:56 Mostly Cloudy with Light Freezing Rain 21 -6.3 20 -6.5 99 99 S 16 26 30.42 1030 1 2 N/A
9:13 am 09:13 Mostly Cloudy with Light Freezing Rain 21 -6 21 -6 100 100 SSE 12 19 30.50 1033 1 2 N/A
9:15 am 09:15 Mostly Cloudy with Light Freezing Rain 21 -6 21 -6 100 100 S 10 17 30.50 1033 1 2 N/A
9:32 am 09:32 Mostly Cloudy with Light Freezing Rain 21 -6 19 -7 93 93 WNW 84 135 30.50 1033 1 2 N/A
9:34 am 09:34 Mostly Cloudy with Light Freezing Rain 21 -6 19 -7 93 93 SW 69 111 30.50 1033 1 2 N/A
9:40 am 09:40 Mostly Cloudy with Light Freezing Rain 21 -6 19 -7 93 93 undefined N/A 30.50 1033 1 2 N/A
9:45 am 09:45 Mostly Cloudy with Light Freezing Rain 21 -6 19 -7 93 93 SSE 46 74 30.50 1033 1 2 N/A
9:53 am 09:53 Mostly Cloudy 19 -7 19 -7 100 100 NNW 159 256 30.53 1034 1 2 N/A
9:57 am 09:57 Mostly Cloudy with Light Freezing Rain 19 -7 19 -7 100 100 undefined N/A 30.53 1034 1 2 N/A
10:02 am 10:02 Mostly Cloudy 19 -7 19 -7 100 100 undefined N/A 30.53 1034 1 2 N/A
10:07 am 10:07 Mostly Cloudy with Light Freezing Rain 19 -7 19 -7 100 100 ENE 119 191 30.53 1034 1 2 N/A
10:08 am 10:08 Mostly Cloudy with Light Freezing Rain 19 -7 19 -7 100 100 ENE 78 126 30.53 1034 1 2 N/A
10:10 am 10:10 Mostly Cloudy with Light Freezing Rain 19 -7 19 -7 100 100 ENE 116 187 30.53 1034 1 2 N/A
10:20 am 10:20 Mostly Cloudy with Light Freezing Rain 19 -7 19 -7 100 100 SSE 28 44 30.53 1034 1 2 N/A
10:25 am 10:25 Mostly Cloudy with Light Freezing Rain 19 -7 19 -7 100 100 S 18 30 30.53 1034 1 2 N/A
10:52 am 10:52 Mostly Cloudy 19 -7 19 -7 100 100 SSE 13 20 30.53 1034 1 2 N/A
10:53 am 10:53 Mostly Cloudy with Light Freezing Rain 19 -7 19 -7 100 100 SSE 13 20 30.53 1034 1 2 N/A
10:56 am 10:56 Mostly Cloudy with Light Freezing Rain 19 -7.1 19 -7.4 98 98 SSE 12 19 30.46 1032 1 2 0.00 0.00
10:59 am 10:59 Mostly Cloudy with Light Freezing Rain 19 -7 18 -8 93 93 SSE 13 20 30.53 1034 1 2 N/A
11:09 am 11:09 Mostly Cloudy with Light Freezing Rain 19 -7 18 -8 93 93 S 17 28 30.50 1033 1 2 N/A
11:56 am 11:56 Mostly Cloudy with Light Freezing Rain 18 -7.7 17 -8.2 96 96 SSE 12 19 30.42 1030 1 2 N/A
12:22 pm 12:22 Mostly Cloudy with Light Freezing Rain 18 -8 18 -8 100 100 SSE 14 22 30.50 1033 1 2 N/A
12:55 pm 12:55 Mostly Cloudy 18 -8 18 -8 100 100 SSE 10 17 30.50 1033 1 2 N/A
12:56 pm 12:56 Mostly Cloudy 17 -8.1 17 -8.5 97 97 SSE 12 19 30.40 1030 1 2 N/A
12:57 pm 12:57 Mostly Cloudy with Light Freezing Rain 18 -8 18 -8 100 100 SSE 13 20 30.50 1033 1 2 N/A
1:56 pm 13:56 Mostly Cloudy with Light Freezing Rain 18 -7.7 17 -8.2 96 96 SE 9 15 30.37 1029 1 2 N/A
2:32 pm 14:32 Mostly Cloudy with Light Freezing Rain 18 -8 18 -8 100 100 SE 13 20 30.45 1031 1 2 N/A
2:56 pm 14:56 Mostly Cloudy with Light Freezing Rain 18 -7.9 17 -8.4 96 96 SE 9 15 30.37 1028 1 2 N/A
3:43 pm 15:43 Mostly Cloudy 18 -8 18 -8 100 100 SE 7 11 30.50 1033 1 2 N/A
3:56 pm 15:56 Mostly Cloudy 18 -8 17 -8.4 97 97 SE 10 17 30.38 1029 1 2 N/A
3:57 pm 15:57 Mostly Cloudy with Light Snow 18 -8 18 -8 100 100 SE 10 17 30.50 1033 1 2 N/A
4:00 pm 16:00 Mostly Cloudy with Light Snow 18 -8 18 -8 100 100 SE 10 17 30.50 1033 1 2 N/A
4:44 pm 16:44 Mostly Cloudy with Light Snow 18 -8 18 -8 100 100 SE 7 11 30.50 1033 1 2 N/A
4:46 pm 16:46 Mostly Cloudy with Light Snow 18 -8 18 -8 100 100 SE 9 15 30.50 1033 1 2 N/A
4:56 pm 16:56 Mostly Cloudy with Light Snow 18 -7.8 17 -8.2 97 97 SE 8 13 30.38 1029 1 2 N/A
5:56 pm 17:56 Mostly Cloudy with Freezing Fog 18 -8 17 -8.5 96 96 SE 9 15 30.38 1029 1 2 N/A
6:56 pm 18:56 Mostly Cloudy with Freezing Fog 17 -8.3 16 -8.7 97 97 SE 9 15 30.40 1029 1 2 N/A
7:56 pm 19:56 Mostly Cloudy with Freezing Fog 16 -8.7 15 -9.2 96 96 SSE 12 19 30.40 1030 1 2 N/A
9:56 pm 21:56 Mostly Cloudy with Freezing Fog 15 -9.7 13 -10.3 95 95 ESE 8 13 30.42 1030 1 2 N/A
10:56 pm 22:56 Mostly Cloudy with Freezing Fog 14 -10.1 13 -10.7 95 95 SE 8 13 30.42 1030 1 2 N/A

Powered by AerisWeather